Gary Chicago International Airport
KGYY : rendu visible

Aérodrome :











RETROUVEZ-NOUS SUR...

 
LOGIN :

S'inscrire | Disclaimer

   EN    FR    IT 

 









Légende :    VFR   VFR Marginal   IFR   IFR Intensif   IFR Très Intensif
Visi : 
Plafond : 
>= 8 km
>= 3000ft
5 à 8 km
1000 à 3000 ft
1500m à 5 km
500 à 1000 ft
800 à 1500m
200 à 500 ft
< 800m
< 200 ft
Symboles :   Orages  Brouillard  Fortes neiges  Fortes précipitations  Vent > 20 kt






- Altitude de l'aérodrome : 591 ft
- Code IATA : GYY


KGYY - Gary Chicago International

DERNIER METAR :
  • 231845Z 36005KT 10SM SCT038 07/M02 A3032

METARs EXPIRÉS :
  • 231745Z 35006KT 10SM SCT040 06/M02 A3033
  • 231645Z 33007KT 10SM CLR 06/M01 A3035

TAF KGYY
Valide du 23 à 18h jusqu'au 24 à 18h UTC


231720Z 2318/2418 33007KT P6SM SCT030
FM231900 01007KT P6SM FEW035 SCT250
FM240100 10006KT P6SM BKN200
FM241000 14009KT 1 1/2SM -SN BR OVC007
FM241600 15012KT 3SM -RASN OVC010
FIR KZAU / Amérique du Nord



MET'MAP, la Météo Aéronautique d'un coup d'oeil ! - Copyright ORBIFLY Décembre 2007 - Disclaimer

ORBIFLY MET'MAP TEAM :

Programmation & Développement : Alexandra Zaïnal
Sur une idée originale de : Baudouin d'Aumeries
Assistance à la programmation : Marc-Olivier Méhu
Soutien technique & logistique : Manuel Goepfert

Contact : metmap@orbifly.com




SOURCES & CREDITS :

   NOAA       Earth
Advisory